[[{"header":{"parameterUnit":"m.s-1","parameterCategory":1,"la1":30.2991,"la2":30.254,"lo1":-89.0895,"lo2":-89.0444,"dy":0.0017,"dx":0.0017,"nx":28,"ny":28,"refTime":"2023-10-24T03:00:00:Z","depth":0,"parameterNumber":2,"parameterNumberName":"U-component_of_WINDS"},"data":[0,0,0,0,0,0,0,0,0,0,0,0,0,0,0,0,0,0,0,0,0,0,0,0,0,0,0,0,0,0,0,0,0,0,0,0,0,0,0,0,0,0,0,0,0,0,0,0,0,0,0,0,0,0,0,0,0,0,-4.8566,-4.8567,0,-4.8641,-4.8642,-4.8642,-4.8482,-4.8477,-4.8471,-4.8467,-4.8547,-4.8554,-4.8561,0,0,0,0,0,0,0,0,0,0,0,0,0,-4.8291,-4.8297,-4.8566,-4.8567,-4.8568,-4.8641,-4.8642,-4.8643,-4.8483,-4.8476,-4.847,-4.8464,-4.8545,-4.8553,-4.8561,0,0,0,0,0,0,0,0,0,0,0,0,0,-4.8393,-4.8299,-4.8566,-4.8497,-4.8492,-4.864,-4.8642,-4.8643,-4.8484,-4.8476,-4.8469,-4.8461,-4.8542,-4.8552,-4.8563,-4.8783,0,0,-4.8595,-4.8599,0,0,0,0,0,0,0,0,-4.8388,-4.8403,-4.8506,-4.8502,-4.8496,-4.8544,-4.8574,-4.869,-4.8486,-4.8487,-4.8466,-4.8457,-4.8553,-4.8562,-4.8593,-4.8787,-4.879,-4.8596,-4.8602,-4.8606,-4.8609,0,0,0,0,0,0,0,-4.8381,-4.8399,-4.8596,-4.8508,-4.8502,-4.8464,-4.847,-4.8595,-4.8563,-4.8486,-4.8475,-4.8486,-4.8548,-4.8583,-4.8594,-4.8792,-4.8595,-4.8605,-4.8611,-4.8615,-4.9174,-4.9182,0,0,0,0,0,0,-4.8382,-4.8394,-4.8593,-4.8598,-4.8421,-4.8476,-4.8482,-4.8537,-4.8561,-4.8557,-4.8492,-4.8478,-4.8569,-4.8582,-4.8596,-4.8858,-4.8606,-4.8616,-4.8622,-4.9166,-4.9176,-4.9185,0,0,0,0,0,0,-4.8376,-4.8401,-4.859,-4.8493,-4.8514,-4.8488,-4.8551,-4.8542,-4.8577,-4.8565,-4.8559,-4.8534,-4.8564,-4.8581,-4.8738,-4.8858,-4.8621,-4.863,-4.9156,-4.9169,-4.9181,-4.9383,0,0,0,0,0,0,-4.8369,-4.84,-4.8482,-4.8496,-4.852,-4.8731,-4.8558,-4.8549,-4.8595,-4.8577,-4.8602,-4.8599,-4.8559,-4.8724,-4.8749,-4.8869,-4.8639,-4.9145,-4.9162,-4.9177,-4.9366,-4.9401,-4.9432,0,0,0,0,0,-4.836,-4.8536,-4.8487,-4.8512,-4.8622,-4.8738,-4.8752,-4.87,-4.8605,-4.8689,-4.8682,-4.8598,-4.8841,-4.8741,-4.8768,-4.8893,-4.9137,-4.9157,-4.9175,-4.9351,-4.9394,-4.9431,0,0,0,0,0,0,-4.8537,-4.8537,-4.8482,-4.8668,-4.8704,-4.871,-4.8813,-4.8747,-4.8812,-4.8793,-4.8727,-4.8735,-4.8906,-4.8914,-4.8803,-4.9109,-4.8973,-4.8999,-4.9097,-4.9139,-4.9171,-4.9166,-4.8647,0,0,0,0,0,-4.8598,-4.8691,-4.8685,-4.885,-4.8871,-4.884,-4.8888,-4.8846,-4.8881,-4.8896,-4.89,-4.8939,-4.9024,-4.9082,-4.9159,-4.9366,-4.9371,-4.9466,-4.9499,-4.9526,-4.9549,-4.9662,-4.9705,-4.9249,-4.9248,-4.9248,0,0,-4.8725,-4.8736,-4.8798,-4.8886,-4.8909,-4.9008,-4.8854,-4.8964,-4.9038,-4.8913,-4.9062,-4.9067,-4.9106,-4.929,-4.9371,-4.9303,-4.9676,-4.955,-4.9572,-4.9581,-4.9687,-4.973,-4.9768,-4.9262,-4.9259,-4.9257,0,0,-4.9006,-4.9023,-4.9163,-4.9189,-4.9226,-4.9205,-4.9239,-4.9256,-4.9254,-4.9403,-4.9312,-4.9399,-4.9547,-4.9579,-4.9615,-4.9913,-4.984,-4.994,-5.0113,-5.0224,-5.026,-5.0292,-5.04,-5.044,-4.9963,-4.9964,-4.9964,0,-4.9159,-4.9303,-4.9243,-4.9362,-4.9404,-4.9295,-4.9438,-4.9467,-4.9529,-4.9562,-4.9484,-4.9668,-4.9687,-4.9878,-4.9951,-4.9983,-5.0022,-4.9937,-5.026,-5.0291,-5.0319,-5.0422,-5.0463,-4.9976,-4.9974,-4.9973,-4.9972,0,-4.949,-4.9592,-4.9701,-4.9763,-4.9818,-4.9948,-4.991,-4.9974,-4.9928,-4.9915,-5.007,-5.0089,-5.0169,-5.0211,-5.0167,-5.0398,-5.0355,-5.027,-5.0132,-5.0376,-5.0472,-5.051,-4.9993,-4.9989,-4.9985,-4.9982,0,0,-4.9884,-4.9912,-4.9954,-4.9981,-5.0016,-5.0094,-5.0221,-5.0299,-5.0356,-5.0403,-5.0509,-5.0638,-5.056,-5.0601,-5.056,-5.0657,-5.0895,-5.056,-5.056,-5.0624,-5.1154,-5.1219,-5.1265,-5.0847,-5.0854,-5.086,-5.1151,0,-5.0163,-5.0379,-5.0331,-5.0545,-5.0641,-5.054,-5.0651,-5.0685,-5.0678,-5.076,-5.0752,-5.0845,-5.0734,-5.0759,-5.085,-5.0847,-5.1001,-5.0825,-5.0947,-5.0953,-5.0942,-5.1314,-5.1382,-5.1657,-5.1188,-5.1194,-5.1199,0,-5.0518,-5.0578,-5.0802,-5.0823,-5.0862,-5.0962,-5.1031,-5.111,-5.1148,-5.1136,-5.1184,-5.1125,-5.1253,-5.1114,-5.1292,-5.1173,-5.1221,-5.1227,-5.1236,-5.1246,-5.1091,-5.1336,-5.1742,-5.1784,-5.1257,-5.1252,-5.1248,0,-5.0785,-5.0922,-5.1074,-5.1101,-5.1129,-5.1203,-5.1219,-5.1249,-5.13,-5.1362,-5.1395,-5.1471,-5.1514,-5.1575,-5.1539,-5.1441,-5.1725,-5.1581,-5.1721,-5.1722,-5.1785,-5.1782,-5.2206,-5.1815,-5.1814,-5.1813,-5.1812,0,-5.1103,-5.1244,-5.1195,-5.1289,-5.1445,-5.139,-5.1547,-5.1551,-5.158,-5.1674,-5.1592,-5.1683,-5.163,-5.1718,-5.1691,-5.1844,-5.1863,-5.1859,-5.185,-5.1867,-5.1868,-5.1898,-5.1878,-5.1824,-5.1821,-5.1819,-5.1818,0,-5.1427,-5.1399,-5.1559,-5.1574,-5.1581,-5.1696,-5.1709,-5.1798,-5.1785,-5.1907,-5.1932,-5.1913,-5.2013,-5.1983,-5.209,-5.2073,-5.2267,-5.2233,-5.2254,-5.2246,-5.2388,-5.2375,-5.2847,-5.2907,-5.2476,-5.248,-5.2483,0,-5.1632,-5.1738,-5.1765,-5.1822,-5.1844,-5.1937,-5.1989,-5.194,-5.1998,-5.2052,-5.2135,-5.2227,-5.2298,-5.2462,-5.2459,-5.2542,-5.2511,-5.267,-5.2522,-5.2537,-5.2515,-5.251,-5.2521,-5.27,-5.2705,-5.2709,-5.2712,0,-5.1999,-5.1981,-5.2058,-5.2134,-5.2198,-5.2255,-5.2304,-5.2356,-5.231,-5.2381,-5.2481,-5.2536,-5.2647,-5.274,-5.2816,-5.2834,-5.2768,-5.2759,-5.2796,-5.2814,-5.2822,-5.2822,-5.2336,-5.2748,-5.2745,-5.2742,-5.274,-5.2739,-5.227,-5.2362,-5.2395,-5.2486,-5.2518,-5.2567,-5.2651,-5.265,-5.2733,-5.2818,-5.2785,-5.2901,-5.294,-5.3035,-5.3064,-5.3155,-5.3094,-5.3147,-5.3161,-5.3175,-5.3194,-5.2808,-5.3169,-5.3168,-5.3167,-5.3166,-5.3165,0,-5.2635,-5.2652,-5.2736,-5.2808,-5.288,-5.281,-5.2862,-5.2928,-5.303,-5.3072,-5.3144,-5.3261,-5.3352,-5.3358,-5.3444,-5.3517,-5.3489,-5.3541,-5.3536,-5.3542,-5.3242,-5.3203,-5.3563,-5.3563,-5.3563,-5.3563,-5.3563,-5.3562,-5.2832,-5.2984,-5.2971,-5.3138,-5.3155,-5.3267,-5.3303,-5.3349,-5.3382,-5.3517,-5.3592,-5.3595,-5.3623,-5.3711,-5.3793,-5.3792,-5.3828,-5.3893,-5.3882,-5.3602,-5.3562,-5.3525,-5.3487,-5.3901,-5.3902,-5.4173,-5.4176,-5.4178]},{"header":{"parameterUnit":"m.s-1","parameterCategory":1,"la1":30.2991,"la2":30.254,"lo1":-89.0895,"lo2":-89.0444,"dy":0.0017,"dx":0.0017,"nx":28,"ny":28,"refTime":"2023-10-24T03:00:00:Z","depth":0,"parameterNumber":3,"parameterNumberName":"V-component_of_WINDS"},"data":[0,0,0,0,0,0,0,0,0,0,0,0,0,0,0,0,0,0,0,0,0,0,0,0,0,0,0,0,0,0,0,0,0,0,0,0,0,0,0,0,0,0,0,0,0,0,0,0,0,0,0,0,0,0,0,0,0,0,-0.9804,-0.9804,0,-0.979,-0.9789,-0.9789,-0.9814,-0.9815,-0.9816,-0.9817,-0.98,-0.9799,-0.9798,0,0,0,0,0,0,0,0,0,0,0,0,0,-0.9851,-0.985,-0.9804,-0.9804,-0.9804,-0.979,-0.9789,-0.9789,-0.9814,-0.9815,-0.9816,-0.9817,-0.9801,-0.9799,-0.9798,0,0,0,0,0,0,0,0,0,0,0,0,0,-0.9833,-0.985,-0.9804,-0.9815,-0.9815,-0.979,-0.9789,-0.9789,-0.9814,-0.9815,-0.9816,-0.9818,-0.9801,-0.9799,-0.9798,-0.9761,0,0,-0.9792,-0.9791,0,0,0,0,0,0,0,0,-0.9834,-0.9831,-0.9813,-0.9814,-0.9815,-0.9805,-0.98,-0.978,-0.9813,-0.9814,-0.9817,-0.9818,-0.9801,-0.9799,-0.9793,-0.976,-0.9759,-0.9792,-0.9791,-0.979,-0.9789,0,0,0,0,0,0,0,-0.9835,-0.9832,-0.9798,-0.9813,-0.9814,-0.9819,-0.9818,-0.9796,-0.9801,-0.9814,-0.9816,-0.9814,-0.9801,-0.9795,-0.9793,-0.9759,-0.9792,-0.979,-0.9789,-0.9788,-0.9691,-0.9689,0,0,0,0,0,0,-0.9836,-0.9833,-0.9799,-0.9798,-0.9828,-0.9817,-0.9816,-0.9807,-0.9801,-0.9801,-0.9813,-0.9815,-0.9798,-0.9795,-0.9793,-0.9746,-0.979,-0.9788,-0.9787,-0.9692,-0.969,-0.9689,0,0,0,0,0,0,-0.9837,-0.9832,-0.98,-0.9816,-0.9812,-0.9815,-0.9805,-0.9806,-0.98,-0.98,-0.9801,-0.9806,-0.9799,-0.9795,-0.9768,-0.9746,-0.9787,-0.9786,-0.9694,-0.9691,-0.9689,-0.9654,0,0,0,0,0,0,-0.9838,-0.9833,-0.9819,-0.9816,-0.9811,-0.9775,-0.9803,-0.9805,-0.9796,-0.9799,-0.9793,-0.9794,-0.9799,-0.977,-0.9766,-0.9744,-0.9784,-0.9696,-0.9693,-0.969,-0.9657,-0.9651,-0.9646,0,0,0,0,0,-0.9839,-0.9811,-0.9819,-0.9814,-0.9795,-0.9774,-0.9772,-0.9779,-0.9795,-0.978,-0.978,-0.9794,-0.975,-0.9767,-0.9763,-0.974,-0.9697,-0.9694,-0.969,-0.966,-0.9652,-0.9646,0,0,0,0,0,0,-0.9812,-0.981,-0.9819,-0.9788,-0.9781,-0.9778,-0.9761,-0.9771,-0.9759,-0.9762,-0.9772,-0.977,-0.974,-0.9738,-0.9757,-0.9702,-0.9726,-0.9721,-0.9704,-0.9697,-0.9691,-0.9691,-0.9783,0,0,0,0,0,-0.9802,-0.9786,-0.9786,-0.9758,-0.9754,-0.9758,-0.975,-0.9756,-0.9748,-0.9745,-0.9743,-0.9735,-0.9719,-0.9709,-0.9694,-0.9658,-0.9655,-0.964,-0.9634,-0.9629,-0.9624,-0.9601,-0.9593,-0.9678,-0.9678,-0.9678,0,0,-0.9782,-0.9779,-0.9769,-0.9753,-0.9748,-0.9729,-0.9755,-0.9736,-0.9722,-0.9743,-0.9715,-0.9713,-0.9705,-0.9672,-0.9657,-0.9669,-0.96,-0.9625,-0.9621,-0.9619,-0.9597,-0.9589,-0.9582,-0.9675,-0.9676,-0.9676,0,0,-0.9735,-0.9733,-0.9708,-0.9702,-0.9695,-0.9697,-0.9691,-0.9686,-0.9685,-0.9659,-0.9673,-0.9656,-0.9629,-0.9621,-0.9614,-0.9562,-0.9572,-0.9557,-0.9526,-0.9503,-0.9496,-0.949,-0.9468,-0.9461,-0.9553,-0.9553,-0.9553,0,-0.9711,-0.9684,-0.9694,-0.9672,-0.9664,-0.9682,-0.9655,-0.965,-0.9637,-0.963,-0.9644,-0.9608,-0.9604,-0.9567,-0.9554,-0.9549,-0.954,-0.9557,-0.9497,-0.9491,-0.9485,-0.9464,-0.9456,-0.9551,-0.9551,-0.9551,-0.9551,0,-0.9653,-0.9634,-0.9615,-0.9602,-0.9592,-0.9568,-0.9573,-0.9561,-0.9568,-0.9568,-0.9539,-0.9534,-0.9517,-0.951,-0.9517,-0.9473,-0.948,-0.9495,-0.9519,-0.9475,-0.9455,-0.9447,-0.9548,-0.9548,-0.9549,-0.9549,0,0,-0.9588,-0.9579,-0.9572,-0.9564,-0.9556,-0.9541,-0.9518,-0.9501,-0.9489,-0.948,-0.9458,-0.9434,-0.9447,-0.9439,-0.9445,-0.9425,-0.938,-0.9442,-0.9442,-0.9428,-0.9327,-0.9313,-0.9304,-0.9388,-0.9387,-0.9385,-0.9326,0,-0.9538,-0.9497,-0.9504,-0.9464,-0.9445,-0.9461,-0.944,-0.9431,-0.9431,-0.9414,-0.9414,-0.9395,-0.9415,-0.941,-0.9391,-0.9389,-0.9359,-0.9394,-0.9365,-0.9364,-0.9363,-0.9294,-0.928,-0.9225,-0.9319,-0.9318,-0.9317,0,-0.9475,-0.9462,-0.9419,-0.9411,-0.9404,-0.9385,-0.9368,-0.9353,-0.9343,-0.9344,-0.9333,-0.9342,-0.9316,-0.9342,-0.9305,-0.9329,-0.9317,-0.9314,-0.9312,-0.9307,-0.9335,-0.9284,-0.9208,-0.9198,-0.9306,-0.9307,-0.9307,0,-0.9427,-0.9399,-0.9369,-0.9363,-0.9354,-0.934,-0.9335,-0.9327,-0.9315,-0.9301,-0.9293,-0.9277,-0.9267,-0.9253,-0.9256,-0.9276,-0.9217,-0.9244,-0.9214,-0.9214,-0.9199,-0.9199,-0.9116,-0.9197,-0.9198,-0.9198,-0.9198,0,-0.9369,-0.9341,-0.9347,-0.9328,-0.9297,-0.9305,-0.9273,-0.9271,-0.9263,-0.9242,-0.9256,-0.9237,-0.9244,-0.9224,-0.9227,-0.9194,-0.919,-0.9188,-0.9188,-0.9185,-0.9184,-0.9175,-0.9178,-0.9196,-0.9196,-0.9197,-0.9197,0,-0.9309,-0.9312,-0.928,-0.9274,-0.9271,-0.9248,-0.9242,-0.9223,-0.9224,-0.9197,-0.9192,-0.9192,-0.9169,-0.9172,-0.9147,-0.9149,-0.9106,-0.9113,-0.9109,-0.9109,-0.9077,-0.9079,-0.8983,-0.8969,-0.9063,-0.9062,-0.9061,0,-0.927,-0.9249,-0.924,-0.9227,-0.9221,-0.9201,-0.9189,-0.9196,-0.9183,-0.9169,-0.9151,-0.9129,-0.9112,-0.9075,-0.9072,-0.9051,-0.9056,-0.9024,-0.9053,-0.9048,-0.905,-0.905,-0.9046,-0.9017,-0.9016,-0.9015,-0.9014,0,-0.92,-0.9202,-0.9184,-0.9166,-0.9152,-0.9138,-0.9126,-0.9114,-0.912,-0.9104,-0.9081,-0.9067,-0.904,-0.9017,-0.8998,-0.8992,-0.9002,-0.9005,-0.8996,-0.8991,-0.8987,-0.8985,-0.9089,-0.9007,-0.9007,-0.9008,-0.9008,-0.9009,-0.9147,-0.9127,-0.9117,-0.9096,-0.9087,-0.9075,-0.9056,-0.9054,-0.9034,-0.9013,-0.9019,-0.8991,-0.8979,-0.8954,-0.8946,-0.8923,-0.8935,-0.8923,-0.892,-0.8916,-0.891,-0.8994,-0.892,-0.8921,-0.8921,-0.8921,-0.8921,0,-0.9073,-0.9067,-0.9048,-0.903,-0.9013,-0.9026,-0.9012,-0.8996,-0.8972,-0.896,-0.8943,-0.8914,-0.8891,-0.8886,-0.8864,-0.8846,-0.885,-0.884,-0.8839,-0.8837,-0.8903,-0.8911,-0.8837,-0.8837,-0.8837,-0.8837,-0.8837,-0.8837,-0.9033,-0.8999,-0.9,-0.8961,-0.8956,-0.8928,-0.8919,-0.8907,-0.8897,-0.8864,-0.8845,-0.8843,-0.8833,-0.8809,-0.8788,-0.8787,-0.8776,-0.8763,-0.8764,-0.8825,-0.8833,-0.8841,-0.8848,-0.8762,-0.8762,-0.8699,-0.8698,-0.8698]}]]